Overview Statistics Trail Chart Weather Telemetry Raw packets
 

This is the latest recevied weather packets stored in our database for station/object DG6YGE-6. If no packets are shown the sender has not sent any weather packets the latest 10 day(s).

<< 18 19 20 21 22 23 24 >>
Time Temp. Humidity Pressure Rain* Wind** Luminosity Snow
1788377350 17.22° C 80% 1018.7 hPa 0 mm - 0 W/m² -
1788376750 17.78° C 80% 1018.6 hPa 0 mm - 0 W/m² -
1788376150 17.78° C 80% 1018.6 hPa 0 mm - 0 W/m² -
1788375550 17.78° C 79% 1018.6 hPa 0 mm - 0 W/m² -
1788374950 17.78° C 79% 1018.7 hPa 0 mm - 0 W/m² -
1788374350 18.33° C 78% 1018.7 hPa 0 mm - 0 W/m² -
1788373750 18.33° C 76% 1018.5 hPa 0 mm - 0 W/m² -
1788373150 18.89° C 74% 1018.4 hPa 0 mm - 0 W/m² -
1788372550 18.89° C 73% 1018.2 hPa 0 mm - 0 W/m² -
1788371950 19.44° C 72% 1018.1 hPa 0 mm - 0 W/m² -
1788371350 19.44° C 71% 1017.8 hPa 0 mm - 1 W/m² -
1788370750 19.44° C 71% 1017.8 hPa 0 mm - 13 W/m² -
1788370150 20° C 70% 1017.8 hPa 0 mm - 19 W/m² -
1788369550 20° C 68% 1018 hPa 0 mm - 16 W/m² -
1788368950 20° C 68% 1018 hPa 0 mm - 28 W/m² -
1788368350 20° C 67% 1018 hPa 0 mm - 28 W/m² -
1788367750 20° C 67% 1018 hPa 0 mm - 14 W/m² -
1788367150 20.56° C 66% 1018.1 hPa 0 mm - 14 W/m² -
1788366550 20.56° C 66% 1017.9 hPa 0 mm - 26 W/m² -
1788365950 20.56° C 64% 1017.9 hPa 0 mm - 52 W/m² -
1788365350 21.11° C 64% 1017.8 hPa 0 mm - 80 W/m² -
1788364750 21.11° C 64% 1017.8 hPa 0 mm - 194 W/m² -
1788364150 20.56° C 63% 1017.8 hPa 0 mm - 174 W/m² -
1788363550 21.11° C 61% 1017.7 hPa 0 mm - 87 W/m² -
1788362950 21.11° C 62% 1017.7 hPa 0 mm - 319 W/m² -

* Rain latest hour (hover to see other rain measurements)
** Current wind speed in m/s (hover to see current wind gust speed)